Temperature
18 18 18 18 18 18 19 19 18 18 18 18 18 18 18 18 18 18 18 18 18 18 18 18 18 18 18 18 18 18 18 18 18 18 18 18 18 18 18 18 17 17 17
18 18 18 18 18 18 18 18 18 18 18 18 18 18 18 18 18 18 18 18 18 18 18 18 18 18 18 18 18 18 18 18 18 17 17 17 17 17 18 18 17 17 17
18 18 18 18 18 18 18 18 18 18 18 18 18 18 18 18 18 18 18 18 18 18 18 18 18 18 18 18 18 18 18 18 17 17 17 17 17 17 17 17 17 17 17
18 18 18 18 18 18 18 18 18 18 18 18 18 18 18 18 18 18 18 18 18 18 18 18 18 18 18 18 18 17 17 18 18 18 18 18 17 17 17 17 17 17 17
19 18 19 18 18 18 18 18 18 18 18 18 18 18 18 18 18 18 18 18 18 18 18 18 18 18 18 18 18 17 17 18 18 18 18 18 17 17 17 17 17 17 17
19 19 19 19 19 18 18 18 18 18 18 18 18 18 18 18 18 18 18 18 18 18 18 18 18 18 18 18 17 17 18 18 18 18 18 18 18 17 17 17 17 17 17
19 19 19 19 19 18 18 18 18 18 18 18 18 18 18 18 18 18 18 18 18 18 18 18 18 18 18 18 18 18 18 18 18 18 18 18 18 18 17 17 17 17 17
19 19 19 18 19 18 18 18 18 18 18 18 18 18 18 18 18 18 18 18 18 18 18 18 18 18 18 18 18 18 18 18 18 18 18 18 18 18 17 17 17 17 17
19 19 19 19 19 18 18 18 18 18 18 18 18 18 18 18 18 18 18 18 18 18 18 18 18 18 18 18 18 18 18 18 18 18 18 18 18 18 18 17 17 17 17
19 19 19 19 19 19 18 18 18 18 18 18 18 18 18 18 18 18 18 18 18 18 18 18 18 17 17 17 18 18 18 18 18 18 18 18 18 18 18 17 17 17 17
19 19 19 19 19 19 19 18 18 18 18 18 18 18 18 18 18 18 18 18 18 18 18 18 18 17 17 17 18 18 18 18 18 18 18 18 18 18 17 17 17 17 17
19 19 19 19 19 19 19 18 18 18 18 18 18 18 18 18 18 18 18 18 18 18 18 18 18 18 18 18 18 18 18 18 18 18 18 18 18 17 17 17 17 17 17
19 19 19 19 19 19 19 18 18 18 18 18 18 18 18 18 18 18 18 18 18 18 18 18 18 18 18 18 18 18 18 18 18 18 18 18 18 18 17 17 17 17 17
19 19 19 19 19 19 19 18 18 18 18 18 18 18 18 18 18 18 18 18 18 18 18 18 18 18 18 18 18 18 18 18 18 18 18 18 18 18 17 17 17 17 17
20 19 19 19 19 19 19 18 18 18 18 18 18 18 18 18 18 18 18 18 18 18 18 18 18 18 18 18 18 18 18 18 18 18 18 18 17 17 17 17 17 17 17
20 20 19 19 19 19 19 18 18 18 18 18 18 18 18 18 18 18 18 18 18 18 18 18 18 18 18 18 18 18 18 18 18 18 18 17 17 17 17 17 17 17 17
20 20 19 19 19 19 19 19 18 18 18 18 18 18 18 18 18 18 18 18 18 18 18 18 18 18 18 18 18 18 18 18 18 18 17 17 17 17 17 17 16 16 16
20 20 20 19 19 19 19 19 19 18 18 18 18 18 18 18 18 18 18 18 18 18 18 18 18 18 18 18 18 18 18 18 17 17 17 17 17 17 17 17 16 16 16
21 20 20 20 19 19 19 19 19 18 18 18 18 18 18 18 18 18 18 18 18 18 18 18 18 18 18 18 18 18 18 17 17 17 17 17 17 17 16 16 16 16 16
21 20 20 20 19 19 19 19 19 19 19 19 18 18 18 18 18 18 18 18 18 18 18 18 18 18 18 18 18 17 17 17 17 17 17 17 17 16 16 16 16 16 16
21 21 20 20 20 20 19 19 19 19 19 19 18 18 18 18 18 18 18 18 18 18 18 18 18 18 18 18 17 17 17 17 17 17 17 17 16 16 16 16 16 16 16
21 21 21 20 20 20 20 19 19 19 19 19 18 18 18 18 18 18 18 18 18 18 18 18 18 18 18 17 17 17 16 16 16 16 16 16 16 16 16 16 15 16 16
22 21 21 21 20 20 20 19 19 19 19 19 19 19 18 18 18 18 18 18 18 18 18 18 17 17 17 17 17 17 16 16 16 16 16 16 16 16 15 15 15 15 15
22 22 21 21 21 20 20 20 19 19 19 19 19 19 18 18 18 18 18 18 18 18 18 18 17 17 17 17 17 17 16 16 16 16 15 16 15 15 15 15 15 15 15
23 22 22 21 21 20 20 20 20 19 19 19 19 19 19 18 18 18 18 18 18 18 18 17 17 17 17 17 17 16 16 16 16 16 15 15 15 15 15 15 15 15 15
23 22 22 21 21 21 20 20 20 20 19 19 19 19 19 18 18 18 18 18 18 18 17 17 17 17 17 17 16 16 16 16 16 16 16 15 15 15 15 15 15 15 15
Wind_Speed
2 3 2 4 6 7 9 9 10 10 11 12 14 15 15 16 17 18 18 19 19 19 20 21 21 21 21 21 21 21 20 20 19 19 19 18 18 18 18 18 17 15 18
1 1 2 5 6 8 9 9 10 10 11 12 13 14 14 15 16 17 18 18 19 19 20 20 20 20 20 20 20 20 19 19 19 19 18 17 17 17 17 17 16 14 17
1 1 3 5 7 8 9 10 11 10 11 13 13 14 14 15 16 16 17 18 18 18 19 19 19 20 20 20 20 19 19 18 18 18 17 14 15 16 16 16 16 16 16
2 2 4 6 7 8 9 10 11 12 12 12 13 13 14 14 15 16 17 18 18 18 19 19 19 19 19 19 19 18 18 17 17 16 13 12 12 15 15 15 16 16 15
2 2 4 7 8 8 9 10 10 11 11 11 12 13 14 14 14 15 16 17 17 18 18 18 18 18 18 17 17 17 16 15 15 13 12 11 11 15 15 15 15 15 14
2 2 4 7 7 8 8 9 10 10 10 11 11 12 13 13 14 14 15 16 16 17 17 17 17 17 16 16 15 15 15 15 13 12 11 11 11 14 14 14 14 13 13
3 2 4 6 7 7 8 9 10 10 10 10 11 12 12 13 13 14 14 15 15 16 16 16 16 16 15 15 14 14 14 14 12 11 10 9 10 13 13 13 13 13 12
3 2 3 5 6 7 7 8 9 10 10 11 12 12 13 13 12 13 13 14 14 15 15 15 14 14 14 13 13 12 13 13 11 10 9 9 11 12 12 12 12 12 11
3 3 3 3 4 5 7 8 8 9 10 10 10 11 12 12 12 12 12 12 13 13 13 13 13 12 12 11 11 11 12 11 10 9 9 8 10 11 11 11 11 11 10
2 2 2 2 3 3 3 6 7 8 9 9 9 10 11 11 10 10 10 10 11 12 12 11 11 10 10 9 9 10 11 10 9 8 7 8 11 10 10 10 10 10 10
1 1 1 2 2 2 2 3 5 6 7 7 7 9 9 7 6 7 8 9 9 9 9 9 9 9 8 7 8 9 8 7 7 6 6 8 10 10 10 10 10 9 9
3 2 1 1 1 1 1 3 3 4 4 5 4 5 6 5 5 5 6 7 7 7 8 8 7 7 6 5 5 6 5 7 6 6 7 9 10 10 10 10 9 9 9
4 3 2 2 2 1 1 2 2 2 3 3 3 4 4 4 3 3 3 3 4 4 4 4 4 4 3 3 2 3 5 5 5 6 7 10 10 10 10 10 10 9 9
3 4 3 3 2 2 1 1 2 1 1 1 1 2 3 1 1 1 1 1 1 1 2 2 2 2 2 2 2 3 4 4 5 5 7 10 10 10 10 10 10 10 9
5 5 4 4 3 2 1 1 2 1 1 1 0 1 2 2 1 1 0 0 0 1 1 1 1 1 1 1 2 3 3 4 5 5 6 9 10 10 10 10 11 10 10
6 5 4 4 4 3 2 2 1 2 2 1 1 1 2 3 2 1 0 0 0 0 1 1 0 1 0 1 1 1 2 3 4 5 5 6 8 10 11 11 11 11 11
6 6 5 5 4 4 3 3 2 2 2 2 2 2 2 3 3 2 1 1 1 1 1 1 1 1 1 1 1 1 2 2 3 4 4 4 5 7 9 10 11 11 11
6 6 5 5 5 4 3 2 2 2 2 2 2 2 3 3 4 3 1 1 1 2 2 2 1 1 1 1 1 1 1 2 2 3 3 3 3 3 5 8 8 8 9
7 7 6 5 5 4 3 2 1 1 1 2 2 2 3 3 4 3 2 1 1 2 2 2 1 2 1 1 1 1 1 1 1 2 2 3 3 3 3 4 5 6 6
6 6 6 5 5 4 2 2 1 1 0 1 1 2 2 3 3 3 2 2 2 2 1 1 2 2 2 2 2 2 2 1 1 1 1 2 2 3 3 3 3 3 5
6 6 6 6 5 4 2 2 2 1 0 0 1 2 2 3 3 3 2 1 2 2 2 2 2 2 2 2 2 2 2 2 2 1 1 0 0 1 2 2 2 3 3
8 7 6 7 6 5 3 3 2 2 1 1 0 0 1 2 3 3 3 2 2 2 1 2 3 2 1 2 2 1 0 1 2 2 1 1 0 1 0 1 1 1 2
9 9 8 7 7 6 5 3 2 2 2 1 1 0 0 1 2 2 2 2 1 2 2 2 3 3 2 2 2 2 2 2 0 1 1 1 1 1 1 1 0 1 2
11 9 8 7 7 6 6 5 5 3 2 2 1 1 0 1 1 2 2 2 1 1 2 2 2 2 3 2 1 1 1 2 2 1 1 1 2 2 1 1 1 1 0
10 9 8 7 7 6 6 7 5 4 3 1 1 1 0 0 0 1 2 2 2 1 2 2 2 2 2 3 2 2 1 1 1 2 1 0 1 1 1 2 2 2 2
8 8 8 8 7 6 7 7 7 6 5 3 2 2 1 0 0 1 2 2 2 1 2 2 2 2 2 2 2 2 2 2 2 2 2 2 1 0 1 2 2 2 2
Wind_Direction
292 297 21 48 58 57 58 62 67 71 79 84 87 90 93 96 99 103 105 105 105 106 108 111 112 112 113 114 113 113 114 114 114 115 116 116 115 114 113 112 111 113 115
218 264 71 70 68 64 64 65 70 75 83 88 91 93 95 96 99 102 104 104 106 108 109 110 111 111 113 114 114 114 114 114 115 116 116 116 116 114 113 113 114 117 118
95 97 104 85 77 70 67 67 70 77 86 91 94 96 96 97 99 101 104 107 108 109 109 110 112 112 114 115 115 115 115 115 116 115 112 110 115 116 116 117 118 119 119
109 97 107 89 80 76 73 70 72 79 87 91 94 97 99 99 102 104 104 107 109 110 111 110 110 112 115 115 116 117 117 116 117 114 109 112 118 121 120 121 121 122 122
98 99 112 92 82 78 77 75 74 80 88 91 95 98 99 101 103 106 106 107 109 110 111 110 109 110 112 114 116 119 119 118 117 111 109 110 117 125 124 124 125 126 126
92 98 112 94 87 82 81 79 77 82 91 93 97 98 100 103 105 107 108 108 109 110 112 112 111 110 112 113 116 118 121 121 115 113 113 115 122 129 130 129 130 129 129
105 99 115 99 93 87 82 81 81 79 86 94 99 99 101 103 105 107 109 108 109 109 111 113 112 112 113 115 117 119 123 123 122 120 119 123 129 133 134 134 134 133 133
110 95 110 104 98 91 86 84 86 84 80 89 98 100 102 103 105 107 110 111 110 110 113 114 114 114 113 113 117 121 125 128 128 127 127 132 139 140 141 141 140 140 140
87 82 77 90 96 93 90 86 87 88 85 84 95 102 103 103 103 106 109 111 111 112 114 117 117 114 112 112 118 124 126 129 128 134 138 142 147 149 150 151 151 151 150
65 59 66 72 70 70 84 92 90 91 89 89 92 105 106 103 105 107 107 112 114 115 116 117 116 114 113 114 119 126 130 127 131 139 144 155 159 158 156 157 161 162 159
147 47 52 73 78 76 78 94 94 94 91 88 86 98 95 81 83 99 107 109 110 112 116 116 114 113 110 113 121 129 130 136 140 147 156 165 169 170 167 165 166 167 169
205 210 183 121 121 117 102 86 75 80 78 75 73 82 87 81 73 85 97 107 108 109 111 113 115 111 104 104 118 126 135 149 154 162 173 178 181 180 178 176 177 177 178
198 196 184 182 168 145 68 102 85 73 74 76 80 89 89 79 63 58 54 64 72 90 88 97 95 92 106 116 122 142 155 159 168 177 185 189 190 190 189 186 188 188 189
183 201 192 183 175 185 162 129 123 99 82 66 81 107 111 104 77 60 33 22 35 67 82 90 95 87 105 124 143 160 170 172 176 183 194 198 197 198 198 197 199 199 199
189 199 193 183 183 184 168 182 143 157 168 208 198 151 157 147 135 141 206 309 8 98 111 113 111 101 97 113 155 166 174 182 187 190 198 206 205 205 207 208 208 209 209
194 195 184 177 181 175 173 181 173 184 195 199 230 218 188 183 179 160 151 173 236 186 119 127 159 130 115 127 126 147 164 170 183 190 198 206 210 211 215 218 217 216 215
188 184 179 181 174 173 184 193 193 198 193 201 233 232 202 191 190 181 162 181 218 197 157 122 123 125 134 113 95 107 139 149 164 179 192 200 211 219 221 224 227 227 225
175 176 186 182 162 169 181 182 187 188 188 206 214 218 207 200 192 183 173 208 206 161 153 152 149 109 95 109 114 108 113 140 160 168 179 189 193 217 232 231 232 234 232
177 175 180 175 160 169 176 159 163 163 189 203 196 201 211 203 192 177 176 204 177 149 155 174 148 144 139 125 120 97 93 146 170 169 170 185 194 208 227 241 241 239 239
175 172 175 167 160 155 142 107 94 85 124 179 180 202 205 206 189 172 173 168 149 142 146 148 147 120 138 130 99 66 51 58 102 150 194 186 188 201 210 222 238 252 253
172 172 176 172 170 150 139 144 142 180 207 216 205 197 198 202 185 169 172 151 148 161 176 156 145 128 128 125 101 64 40 53 61 52 65 96 179 199 185 210 230 238 256
184 184 184 186 180 173 167 156 153 151 169 192 201 134 184 185 187 180 169 168 159 157 155 160 157 155 168 161 140 128 47 14 32 42 58 81 22 69 91 240 229 245 255
192 194 195 192 187 181 166 133 107 80 55 50 53 41 234 182 174 167 168 167 172 175 180 188 180 175 186 196 180 166 170 203 246 25 39 55 59 48 1 15 297 245 238
201 195 191 187 187 182 167 165 162 167 188 209 190 181 175 156 166 169 167 169 171 174 188 206 188 185 177 194 201 203 190 163 169 170 34 44 53 47 9 9 25 28 191
195 188 187 181 187 183 177 175 172 182 193 177 153 149 128 37 110 169 166 162 176 190 205 203 190 190 187 191 190 178 160 142 160 176 201 173 47 27 25 35 38 36 53
186 182 179 180 192 186 183 182 184 190 188 179 182 184 191 199 249 192 169 165 177 191 207 212 203 199 202 200 202 194 182 179 183 178 191 189 201 3 34 38 39 36 44
Height
1508 1507 1506 1505 1504 1503 1502 1500 1499 1498 1498 1497 1496 1496 1496 1496 1496 1497 1499 1501 1503 1505 1507 1510 1512 1514 1517 1519 1522 1525 1527 1530 1532 1534 1536 1538 1540 1542 1544 1546 1547 1549 1550
1509 1508 1508 1507 1506 1505 1503 1502 1501 1500 1500 1500 1500 1499 1500 1500 1501 1502 1503 1505 1507 1509 1511 1513 1516 1518 1520 1522 1525 1528 1530 1533 1535 1537 1539 1541 1543 1544 1546 1548 1549 1551 1552
1510 1510 1509 1509 1508 1507 1506 1504 1503 1503 1503 1503 1503 1503 1503 1504 1505 1506 1507 1509 1511 1513 1515 1517 1519 1521 1524 1526 1528 1531 1533 1535 1538 1539 1541 1543 1545 1547 1548 1550 1551 1553 1554
1511 1511 1511 1511 1510 1509 1508 1507 1506 1505 1505 1506 1506 1507 1507 1508 1509 1510 1511 1513 1515 1517 1519 1520 1522 1525 1527 1529 1531 1534 1536 1538 1540 1542 1544 1545 1547 1549 1550 1552 1553 1554 1556
1513 1513 1513 1513 1512 1511 1511 1510 1509 1508 1509 1509 1509 1510 1511 1511 1512 1514 1515 1517 1518 1520 1522 1524 1526 1528 1530 1532 1535 1537 1539 1541 1543 1544 1546 1548 1549 1551 1552 1554 1555 1556 1558
1515 1515 1516 1516 1515 1514 1513 1513 1512 1511 1511 1511 1512 1513 1514 1515 1516 1518 1519 1521 1522 1524 1526 1528 1530 1532 1534 1536 1538 1540 1542 1543 1545 1547 1548 1550 1551 1553 1554 1555 1557 1558 1559
1517 1518 1518 1518 1518 1517 1516 1516 1515 1514 1514 1513 1514 1515 1517 1518 1519 1521 1523 1524 1526 1527 1529 1531 1533 1535 1537 1539 1541 1542 1544 1546 1547 1549 1550 1552 1553 1555 1556 1557 1558 1559 1561
1520 1520 1520 1521 1520 1520 1519 1519 1518 1518 1517 1517 1518 1519 1520 1521 1523 1524 1526 1527 1529 1531 1533 1534 1536 1538 1540 1542 1543 1545 1547 1548 1550 1551 1552 1554 1555 1556 1557 1558 1560 1561 1562
1522 1523 1523 1523 1523 1523 1522 1522 1522 1521 1521 1521 1521 1522 1524 1525 1526 1528 1529 1531 1532 1534 1536 1538 1539 1541 1543 1545 1546 1548 1549 1550 1552 1553 1554 1555 1556 1557 1558 1559 1561 1562 1563
1524 1525 1525 1525 1525 1525 1525 1525 1525 1525 1525 1524 1525 1526 1527 1528 1529 1531 1532 1534 1535 1537 1538 1540 1542 1544 1546 1547 1549 1550 1551 1552 1554 1555 1556 1557 1558 1559 1559 1560 1561 1562 1563
1526 1527 1527 1528 1528 1528 1528 1528 1528 1528 1528 1528 1528 1529 1530 1531 1532 1534 1535 1536 1538 1540 1541 1543 1544 1546 1548 1549 1551 1552 1553 1554 1555 1556 1557 1558 1559 1560 1560 1561 1562 1563 1564
1528 1529 1529 1530 1530 1530 1531 1531 1531 1531 1531 1531 1531 1532 1533 1534 1535 1537 1538 1540 1541 1542 1544 1545 1547 1548 1550 1551 1552 1553 1554 1555 1556 1557 1558 1559 1559 1560 1561 1561 1562 1563 1564
1529 1530 1531 1532 1532 1533 1533 1533 1533 1534 1534 1534 1535 1535 1536 1537 1538 1540 1541 1542 1544 1545 1546 1547 1549 1550 1551 1553 1553 1554 1555 1556 1557 1558 1558 1559 1560 1560 1561 1562 1562 1563 1564
1531 1532 1533 1534 1534 1535 1535 1535 1536 1536 1537 1537 1538 1538 1539 1540 1541 1542 1544 1545 1546 1547 1548 1549 1550 1551 1553 1554 1554 1555 1556 1557 1558 1558 1559 1559 1560 1561 1561 1561 1562 1562 1563
1532 1533 1534 1535 1536 1536 1537 1537 1538 1538 1539 1539 1540 1541 1542 1542 1543 1544 1545 1547 1548 1549 1549 1550 1551 1552 1553 1554 1555 1556 1556 1557 1558 1558 1559 1559 1560 1560 1561 1561 1562 1562 1563
1532 1534 1535 1536 1537 1538 1538 1539 1540 1540 1541 1541 1542 1543 1544 1544 1545 1546 1547 1548 1549 1550 1550 1551 1552 1553 1554 1554 1555 1556 1556 1557 1557 1558 1558 1559 1559 1559 1560 1560 1560 1561 1561
1533 1534 1535 1537 1538 1538 1539 1540 1541 1542 1542 1543 1543 1544 1545 1546 1546 1547 1548 1548 1549 1550 1551 1552 1552 1553 1553 1554 1555 1555 1556 1556 1556 1557 1557 1557 1558 1558 1558 1559 1559 1559 1560
1533 1534 1536 1537 1538 1539 1540 1541 1542 1543 1543 1544 1545 1545 1546 1546 1547 1548 1548 1549 1549 1550 1551 1551 1552 1552 1553 1554 1554 1554 1555 1555 1555 1555 1556 1556 1556 1556 1557 1557 1558 1558 1558
1533 1534 1536 1537 1538 1539 1540 1541 1542 1543 1544 1545 1546 1546 1547 1547 1548 1548 1548 1549 1550 1550 1550 1551 1551 1552 1552 1553 1553 1553 1553 1554 1554 1554 1554 1554 1555 1555 1555 1556 1556 1556 1556
1533 1535 1536 1537 1538 1539 1541 1542 1543 1544 1544 1545 1546 1547 1547 1548 1548 1548 1549 1549 1549 1550 1550 1550 1551 1551 1551 1552 1552 1552 1552 1552 1552 1552 1552 1553 1553 1553 1553 1553 1553 1553 1554
1533 1534 1535 1537 1538 1539 1540 1541 1542 1543 1544 1545 1546 1546 1547 1547 1548 1548 1549 1549 1549 1549 1549 1549 1549 1550 1550 1550 1550 1550 1550 1550 1550 1551 1551 1551 1551 1551 1551 1551 1551 1551 1551
1531 1533 1535 1536 1537 1539 1540 1541 1542 1543 1544 1545 1546 1546 1547 1547 1548 1548 1548 1548 1548 1548 1548 1548 1548 1548 1548 1549 1549 1549 1549 1550 1549 1549 1549 1549 1549 1549 1549 1549 1549 1549 1550
1529 1531 1533 1535 1536 1538 1539 1541 1542 1543 1543 1544 1545 1546 1546 1547 1547 1548 1548 1548 1548 1547 1547 1547 1547 1547 1547 1547 1547 1548 1548 1547 1548 1548 1548 1548 1548 1548 1548 1547 1547 1547 1547
1527 1529 1531 1533 1535 1537 1538 1540 1541 1541 1542 1543 1544 1545 1546 1546 1547 1547 1547 1547 1546 1546 1546 1546 1546 1546 1545 1545 1545 1546 1547 1546 1546 1546 1547 1547 1546 1546 1546 1546 1546 1546 1546
1524 1527 1530 1532 1534 1535 1537 1538 1539 1540 1541 1543 1543 1544 1545 1546 1546 1546 1546 1545 1545 1545 1545 1545 1544 1544 1543 1543 1544 1544 1544 1544 1544 1544 1544 1545 1545 1545 1544 1544 1544 1544 1544
1522 1525 1527 1530 1532 1534 1535 1536 1538 1539 1540 1541 1542 1543 1544 1544 1545 1545 1545 1544 1544 1544 1543 1543 1542 1542 1542 1541 1542 1542 1542 1542 1542 1542 1542 1542 1543 1543 1543 1543 1543 1543 1543